AAL2251 KPDX-CYVR

Flight info

Callsign AAL2251
Flight time 0h 44m
Altitude 34000
Route BTG J1 SEA DCT PAE GRIZZ7
Aircraft A20N/M-SDE2E3FGHIRWXY/LB1

Departure

Time 2026-05-05 02:47
Airport Portland International Airport (KPDX)

Arrival

Time 2026-05-05 03:32
Airport Vancouver International Airport (CYVR)
Time Latitude Longitude Altitude Speed Heading
2026-05-05 02:21 45.58833 -122.59639 35 ft 0 kts 43°
2026-05-05 02:39 45.58823 -122.59655 36 ft 2 kts 57°
2026-05-05 02:40 45.58815 -122.59674 34 ft 2 kts 64°
2026-05-05 02:40 45.58809 -122.59696 35 ft 2 kts 69°
2026-05-05 02:40 45.58808 -122.59702 35 ft 0 kts 65°
2026-05-05 02:43 45.58792 -122.59666 32 ft 3 kts 155°
2026-05-05 02:44 45.58692 -122.59680 35 ft 17 kts 156°
2026-05-05 02:44 45.58618 -122.59505 34 ft 24 kts 123°
2026-05-05 02:44 45.58523 -122.59285 31 ft 28 kts 121°
2026-05-05 02:44 45.58429 -122.59040 30 ft 29 kts 120°
2026-05-05 02:45 45.58336 -122.58785 30 ft 29 kts 119°
2026-05-05 02:45 45.58233 -122.58535 32 ft 30 kts 120°
2026-05-05 02:45 45.58199 -122.58448 31 ft 14 kts 112°
2026-05-05 02:45 45.58164 -122.58370 29 ft 0 kts 156°
2026-05-05 02:46 45.58159 -122.58367 29 ft 9 kts 158°
2026-05-05 02:46 45.58076 -122.58428 31 ft 14 kts 263°
2026-05-05 02:46 45.58095 -122.58498 33 ft 0 kts 295°
2026-05-05 02:46 45.58116 -122.58559 34 ft 32 kts 296°
2026-05-05 02:47 45.58350 -122.59174 30 ft 107 kts 298°
2026-05-05 02:47 45.58801 -122.60350 49 ft 161 kts 296°
2026-05-05 02:47 45.59397 -122.61854 308 ft 189 kts 296°
2026-05-05 02:47 45.60087 -122.63577 747 ft 211 kts 297°
2026-05-05 02:48 45.60772 -122.65564 1180 ft 232 kts 295°
2026-05-05 02:48 45.61466 -122.67634 2182 ft 232 kts 295°
2026-05-05 02:48 45.62184 -122.69796 2916 ft 251 kts 295°
2026-05-05 02:48 45.63204 -122.71879 3859 ft 259 kts 316°
2026-05-05 02:49 45.64641 -122.73409 5015 ft 260 kts 334°
2026-05-05 02:49 45.66385 -122.73952 6185 ft 259 kts
2026-05-05 02:49 45.68122 -122.73268 7226 ft 267 kts 27°
2026-05-05 02:49 45.69529 -122.71484 8130 ft 277 kts 51°
2026-05-05 02:50 45.70562 -122.69182 9152 ft 281 kts 59°
2026-05-05 02:50 45.71524 -122.66727 10148 ft 285 kts 59°
2026-05-05 02:50 45.72545 -122.64209 10749 ft 304 kts 58°
2026-05-05 02:50 45.73705 -122.61536 11125 ft 327 kts 56°
2026-05-05 02:51 45.74975 -122.58744 11760 ft 339 kts 55°
2026-05-05 02:51 45.76267 -122.55907 12675 ft 342 kts 56°
2026-05-05 02:51 45.77705 -122.53189 13566 ft 344 kts 42°
2026-05-05 02:51 45.79695 -122.51310 14360 ft 345 kts 22°
2026-05-05 02:52 45.82032 -122.50524 15168 ft 348 kts
2026-05-05 02:52 45.84421 -122.50240 15962 ft 351 kts
2026-05-05 02:52 45.86868 -122.50031 16748 ft 354 kts
2026-05-05 02:52 45.89337 -122.49810 17548 ft 357 kts
2026-05-05 02:53 45.91824 -122.49558 18326 ft 360 kts
2026-05-05 02:53 45.94330 -122.49278 19035 ft 362 kts
2026-05-05 02:53 45.96857 -122.48984 19708 ft 366 kts
2026-05-05 02:53 45.99402 -122.48680 20435 ft 367 kts
2026-05-05 02:54 46.01957 -122.48373 21126 ft 371 kts
2026-05-05 02:54 46.04537 -122.48063 21805 ft 373 kts
2026-05-05 02:54 46.07138 -122.47750 22478 ft 376 kts
2026-05-05 02:54 46.09720 -122.47439 23144 ft 379 kts
2026-05-05 02:55 46.12365 -122.47123 23723 ft 383 kts
2026-05-05 02:55 46.15028 -122.46803 24274 ft 385 kts
2026-05-05 02:55 46.17700 -122.46482 24829 ft 387 kts
2026-05-05 02:55 46.20396 -122.46156 25346 ft 390 kts
2026-05-05 02:56 46.23103 -122.45830 25872 ft 392 kts
2026-05-05 02:56 46.25825 -122.45501 26406 ft 394 kts
2026-05-05 02:56 46.28575 -122.45169 26844 ft 398 kts
2026-05-05 02:56 46.31342 -122.44835 27329 ft 400 kts
2026-05-05 02:57 46.34119 -122.44499 27772 ft 403 kts
2026-05-05 02:57 46.36893 -122.44162 28239 ft 405 kts
2026-05-05 02:57 46.39711 -122.43820 28669 ft 408 kts
2026-05-05 02:57 46.42551 -122.43475 29075 ft 410 kts
2026-05-05 02:58 46.45405 -122.43127 29488 ft 413 kts
2026-05-05 02:58 46.48274 -122.42777 29900 ft 415 kts
2026-05-05 02:58 46.51166 -122.42424 30247 ft 418 kts
2026-05-05 02:58 46.54064 -122.42070 30632 ft 419 kts
2026-05-05 02:59 46.56977 -122.41714 31022 ft 420 kts
2026-05-05 02:59 46.59888 -122.41358 31475 ft 420 kts
2026-05-05 02:59 46.62749 -122.41009 32007 ft 417 kts
2026-05-05 02:59 46.65633 -122.40656 32498 ft 415 kts
2026-05-05 03:00 46.68506 -122.40305 32979 ft 414 kts
2026-05-05 03:00 46.71367 -122.39953 33513 ft 411 kts
2026-05-05 03:00 46.74204 -122.39604 33973 ft 409 kts
2026-05-05 03:00 46.77028 -122.39255 34399 ft 406 kts
2026-05-05 03:01 46.79840 -122.38908 34700 ft 406 kts
2026-05-05 03:01 46.82643 -122.38562 34802 ft 403 kts
2026-05-05 03:01 46.85435 -122.38218 34887 ft 402 kts
2026-05-05 03:02 46.90979 -122.37532 34915 ft 402 kts
2026-05-05 03:02 46.96550 -122.36842 34922 ft 402 kts
2026-05-05 03:03 47.02122 -122.36150 34925 ft 402 kts
2026-05-05 03:03 47.07694 -122.35457 34928 ft 402 kts
2026-05-05 03:04 47.13262 -122.34764 34923 ft 401 kts
2026-05-05 03:04 47.18817 -122.34069 34920 ft 400 kts
2026-05-05 03:05 47.24329 -122.33378 34915 ft 400 kts
2026-05-05 03:05 47.29866 -122.32683 34906 ft 399 kts
2026-05-05 03:06 47.35399 -122.31987 34907 ft 399 kts
2026-05-05 03:06 47.40934 -122.31290 34906 ft 399 kts
2026-05-05 03:07 47.46468 -122.30669 34906 ft 399 kts
2026-05-05 03:07 47.51983 -122.30360 34882 ft 399 kts
2026-05-05 03:08 47.57534 -122.30040 34881 ft 399 kts
2026-05-05 03:08 47.63084 -122.29685 34888 ft 399 kts
2026-05-05 03:09 47.68635 -122.29320 34888 ft 399 kts
2026-05-05 03:09 47.74189 -122.28954 34915 ft 399 kts
2026-05-05 03:10 47.79705 -122.28590 34914 ft 399 kts
2026-05-05 03:10 47.85251 -122.28223 34919 ft 399 kts
2026-05-05 03:11 47.90799 -122.27952 34921 ft 399 kts 359°
2026-05-05 03:11 47.96274 -122.29019 34476 ft 397 kts 351°
2026-05-05 03:11 47.99000 -122.29816 33908 ft 399 kts 351°
2026-05-05 03:12 48.01733 -122.30601 33243 ft 401 kts 351°
2026-05-05 03:12 48.04479 -122.31387 32473 ft 403 kts 351°
2026-05-05 03:12 48.07239 -122.32181 31602 ft 405 kts 351°
2026-05-05 03:12 48.09982 -122.32973 30706 ft 409 kts 350°
2026-05-05 03:13 48.12782 -122.33783 29865 ft 411 kts 350°
2026-05-05 03:13 48.15576 -122.34595 29161 ft 407 kts 350°
2026-05-05 03:13 48.18337 -122.35400 28523 ft 402 kts 350°
2026-05-05 03:13 48.21068 -122.36198 27864 ft 398 kts 350°
2026-05-05 03:14 48.23774 -122.36990 27220 ft 394 kts 350°
2026-05-05 03:14 48.26452 -122.37778 26592 ft 390 kts 350°
2026-05-05 03:14 48.29094 -122.38616 25952 ft 388 kts 345°
2026-05-05 03:14 48.31562 -122.40221 25332 ft 389 kts 332°
2026-05-05 03:15 48.33675 -122.42771 24719 ft 393 kts 317°
2026-05-05 03:15 48.35336 -122.46050 24158 ft 392 kts 311°
2026-05-05 03:15 48.37110 -122.48985 23761 ft 378 kts 323°
2026-05-05 03:15 48.39280 -122.51121 22926 ft 373 kts 339°
2026-05-05 03:16 48.41748 -122.52229 22149 ft 367 kts 353°
2026-05-05 03:16 48.44276 -122.52330 21191 ft 363 kts
2026-05-05 03:16 48.46710 -122.51429 20264 ft 362 kts 20°
2026-05-05 03:16 48.48952 -122.49705 19349 ft 361 kts 27°
2026-05-05 03:17 48.51148 -122.47902 18484 ft 357 kts 23°
2026-05-05 03:17 48.53483 -122.46745 17559 ft 353 kts
2026-05-05 03:17 48.55913 -122.46527 16667 ft 348 kts 356°
2026-05-05 03:17 48.58293 -122.47113 15796 ft 346 kts 349°
2026-05-05 03:18 48.60610 -122.47809 14967 ft 343 kts 349°
2026-05-05 03:18 48.62944 -122.48501 14148 ft 340 kts 349°
2026-05-05 03:18 48.65256 -122.49186 13273 ft 338 kts 349°
2026-05-05 03:18 48.67548 -122.49866 12674 ft 328 kts 349°
2026-05-05 03:19 48.71729 -122.52461 12438 ft 319 kts 322°
2026-05-05 03:19 48.73199 -122.54871 12207 ft 314 kts 310°
2026-05-05 03:19 48.74605 -122.57628 11886 ft 344 kts 310°
2026-05-05 03:20 48.76052 -122.60448 11758 ft 340 kts 310°
2026-05-05 03:20 48.77518 -122.63189 11521 ft 329 kts 317°
2026-05-05 03:20 48.79369 -122.65206 10521 ft 332 kts 336°
2026-05-05 03:20 48.81594 -122.66293 9545 ft 336 kts 347°
2026-05-05 03:21 48.83824 -122.67128 9318 ft 323 kts 347°
2026-05-05 03:21 48.85957 -122.67918 9178 ft 309 kts 347°
2026-05-05 03:21 48.87994 -122.68695 9049 ft 295 kts 347°
2026-05-05 03:21 48.89941 -122.69461 8824 ft 286 kts 346°
2026-05-05 03:22 48.91832 -122.70217 8423 ft 284 kts 346°
2026-05-05 03:22 48.93737 -122.70987 7997 ft 283 kts 345°
2026-05-05 03:22 48.95638 -122.71758 7582 ft 282 kts 345°
2026-05-05 03:22 48.97506 -122.72519 7420 ft 272 kts 345°
2026-05-05 03:23 48.99289 -122.73247 7320 ft 259 kts 345°
2026-05-05 03:23 49.00992 -122.73943 7229 ft 248 kts 345°
2026-05-05 03:23 49.02617 -122.74608 7144 ft 236 kts 345°
2026-05-05 03:23 49.04171 -122.75243 7042 ft 226 kts 345°
2026-05-05 03:24 49.05680 -122.75861 6818 ft 223 kts 344°
2026-05-05 03:24 49.07181 -122.76475 6529 ft 223 kts 344°
2026-05-05 03:24 49.08657 -122.77080 6267 ft 222 kts 344°
2026-05-05 03:24 49.10148 -122.77691 5980 ft 222 kts 344°
2026-05-05 03:25 49.11633 -122.78300 5718 ft 220 kts 343°
2026-05-05 03:25 49.13102 -122.78903 5533 ft 214 kts 343°
2026-05-05 03:25 49.14482 -122.79547 5432 ft 202 kts 333°
2026-05-05 03:25 49.15534 -122.80847 5235 ft 194 kts 304°
2026-05-05 03:26 49.16119 -122.82682 4965 ft 193 kts 288°
2026-05-05 03:26 49.16428 -122.84646 4841 ft 183 kts 281°
2026-05-05 03:26 49.16637 -122.86483 4758 ft 169 kts 281°
2026-05-05 03:26 49.16830 -122.88161 4672 ft 157 kts 281°
2026-05-05 03:27 49.17013 -122.89744 4576 ft 147 kts 281°
2026-05-05 03:27 49.17189 -122.91265 4350 ft 145 kts 281°
2026-05-05 03:27 49.17365 -122.92776 4121 ft 143 kts 281°
2026-05-05 03:27 49.17538 -122.94275 3768 ft 144 kts 281°
2026-05-05 03:28 49.17712 -122.95783 3424 ft 144 kts 280°
2026-05-05 03:28 49.17884 -122.97268 3178 ft 137 kts 280°
2026-05-05 03:28 49.18047 -122.98703 2655 ft 146 kts 279°
2026-05-05 03:28 49.18225 -123.00261 2178 ft 148 kts 280°
2026-05-05 03:29 49.18404 -123.01773 1893 ft 140 kts 279°
2026-05-05 03:29 49.18567 -123.03187 1685 ft 133 kts 279°
2026-05-05 03:29 49.18732 -123.04613 1496 ft 136 kts 279°
2026-05-05 03:29 49.18896 -123.06034 1313 ft 136 kts 279°
2026-05-05 03:30 49.19060 -123.07458 1121 ft 136 kts 279°
2026-05-05 03:30 49.19224 -123.08878 938 ft 135 kts 279°
2026-05-05 03:30 49.19389 -123.10298 769 ft 136 kts 279°
2026-05-05 03:30 49.19549 -123.11688 597 ft 134 kts 279°
2026-05-05 03:31 49.19711 -123.13094 423 ft 134 kts 279°
2026-05-05 03:31 49.19879 -123.14488 265 ft 134 kts 281°
2026-05-05 03:31 49.20044 -123.15873 111 ft 132 kts 279°
2026-05-05 03:31 49.20205 -123.17257 31 ft 129 kts 280°
2026-05-05 03:32 49.20319 -123.18322 22 ft 60 kts 276°
2026-05-05 03:32 49.20259 -123.18642 23 ft 26 kts 249°
2026-05-05 03:32 49.20224 -123.18782 20 ft 2 kts 249°
2026-05-05 03:32 49.20213 -123.18823 21 ft 7 kts 249°
2026-05-05 03:33 49.20176 -123.18865 20 ft 7 kts 163°
2026-05-05 03:33 49.20155 -123.18789 20 ft 10 kts 102°
2026-05-05 03:33 49.20145 -123.18666 20 ft 14 kts 95°
2026-05-05 03:33 49.20127 -123.18506 20 ft 17 kts 102°
2026-05-05 03:34 49.20095 -123.18273 20 ft 26 kts 101°
2026-05-05 03:34 49.20063 -123.17982 19 ft 29 kts 99°
2026-05-05 03:34 49.20019 -123.17830 19 ft 6 kts 171°
2026-05-05 03:34 49.19896 -123.17848 20 ft 22 kts 193°
2026-05-05 03:35 49.19848 -123.17871 19 ft 0 kts 198°